This is the latest recevied weather packets stored in our database for station/object KD0SBN. If no packets are shown the sender has not sent any weather packets the latest 10 day(s).
| Time | Temp. | Humidity | Pressure | Rain* | Wind** | Luminosity | Snow |
|---|---|---|---|---|---|---|---|
| 1777640683 | 7.78° C | 80% | 1020.7 hPa | 0 mm | - | - | - |
| 1777640379 | 7.78° C | 81% | 1020.7 hPa | 0 mm | - | - | - |
| 1777640076 | 6.67° C | 84% | 1020.5 hPa | 0 mm | - | - | - |
| 1777639773 | 6.11° C | 86% | 1020.7 hPa | 0 mm | - | - | - |
| 1777639471 | 5.56° C | 89% | 1020.7 hPa | 0 mm | - | - | - |
| 1777639167 | 5° C | 90% | 1020.4 hPa | 0 mm | - | - | - |
| 1777638863 | 4.44° C | 92% | 1020.4 hPa | 0 mm | - | - | - |
| 1777638559 | 4.44° C | 92% | 1020.7 hPa | 0 mm | - | - | - |
| 1777638256 | 4.44° C | 93% | 1020.6 hPa | 0 mm | - | - | - |
| 1777637952 | 3.89° C | 93% | 1020.5 hPa | 0 mm | - | - | - |
| 1777637648 | 3.89° C | 93% | 1020.5 hPa | 0 mm | - | - | - |
| 1777637346 | 3.89° C | 92% | 1020.5 hPa | 0 mm | - | - | - |
| 1777637042 | 3.89° C | 91% | 1020.5 hPa | 0 mm | - | - | - |
| 1777636738 | 4.44° C | 91% | 1020.3 hPa | 0 mm | - | - | - |
| 1777636434 | 4.44° C | 90% | 1020.3 hPa | 0 mm | - | - | - |
| 1777636130 | 5° C | 90% | 1020.3 hPa | 0 mm | - | - | - |
| 1777635825 | 5° C | 90% | 1020.5 hPa | 0 mm | - | - | - |
| 1777635522 | 5° C | 91% | 1020.1 hPa | 0 mm | - | - | - |
| 1777635218 | 4.44° C | 91% | 1020.3 hPa | 0 mm | - | - | - |
| 1777634916 | 4.44° C | 91% | 1020.3 hPa | 0 mm | - | - | - |
| 1777634612 | 4.44° C | 91% | 1020.3 hPa | 0 mm | - | - | - |
| 1777634310 | 4.44° C | 91% | 1020.4 hPa | 0 mm | - | - | - |
| 1777634006 | 4.44° C | 92% | 1020.4 hPa | 0 mm | - | - | - |
| 1777633703 | 4.44° C | 92% | 1020.3 hPa | 0 mm | - | - | - |
| 1777633401 | 3.89° C | 93% | 1020.3 hPa | 0 mm | - | - | - |
* Rain latest hour (hover to see other rain measurements)
** Current wind speed in m/s (hover to see current wind gust speed)